Location: Boiro
(42.6475°N, 8.8834°W)
Time: 02:26:04
(UTC+02:00)

UKube-1 - Pass Details

Date: 01 May 2024
Orbit: 583 x 591 km, 98.3° (Epoch: 23 May)

Event Time Altitude Azimuth Distance (km) Brightness Sun altitude
Rises 03:20:32 0° 17° (NNE) 2,831 ? -31.1°
Reaches altitude 10° 03:22:45 10° 22° (NNE) 1,923 ? -31.0°
Enters shadow 03:24:55 29° 35° (NE) 1,098 ? -30.9°
